Location: Peebles
(55.6412°N, 3.1714°W)
Time: 12:04:26
(UTC+00:00)

RS-15 - Pass Details

Date: 30 November 2023
Orbit: 1893 x 2151 km, 64.8° (Epoch: 02 March)

Event Time Altitude Azimuth Distance (km) Brightness Sun altitude
Rises 22:06:41 0° 215° (SW) 5,650 10.4 -49.9°
Enters shadow 22:06:54 - 215° (SW) 5,586 10.3 -50.0°
Exits shadow 22:33:17 12° 48° (NE) 4,290 9.8 -52.3°
Drops below altitude 10° 22:33:52 10° 48° (NE) 4,465 9.9 -52.4°
Sets 22:37:08 0° 47° (NE) 5,435 10.4 -52.6°
